Wind_Speed
44 42 41 41 43 43 42 43 42 42 43 43 41 42 44 43 43 46 48 51 52 50 47 47 45 43 43 43 44 45 43 42 40 41 41 41 39 38 35 35 35 35 35 36 36 38 33
46 45 44 43 43 43 43 43 43 42 41 40 41 40 41 42 43 43 44 46 47 47 47 47 46 47 46 47 46 45 44 42 40 40 40 40 38 36 34 32 31 31 32 33 33 32 30
46 44 44 45 44 43 43 42 42 42 42 41 41 41 40 39 40 41 43 45 46 47 48 48 48 47 48 47 46 45 43 43 40 38 36 37 36 35 31 29 30 31 32 30 28 27 24
47 46 44 44 44 44 43 43 42 41 41 40 39 38 38 38 38 38 40 41 43 44 45 45 45 45 44 44 41 40 40 41 39 38 37 36 35 33 31 32 31 30 31 29 28 27 23
49 47 46 46 45 45 44 43 43 42 41 40 39 40 40 40 39 38 38 38 38 38 37 37 37 37 34 40 37 38 37 37 39 39 38 38 36 34 33 34 35 35 35 32 31 28 26
48 47 46 45 45 45 44 44 43 42 41 41 41 41 41 40 40 39 39 39 38 37 36 35 35 34 34 37 37 37 36 37 38 39 40 38 37 36 36 37 38 38 39 35 32 32 28
48 47 47 46 45 44 43 44 43 43 42 42 42 42 42 42 41 41 39 38 37 37 37 37 37 35 39 37 39 37 38 38 40 42 41 39 40 40 37 37 39 38 40 36 34 33 32
49 48 47 47 45 44 44 44 44 44 44 44 44 44 43 43 42 41 40 39 38 38 37 37 37 36 39 38 39 39 40 40 40 42 41 40 41 38 35 35 37 36 37 36 35 34 33
52 50 49 48 47 46 46 45 46 46 46 45 45 45 45 44 44 43 42 42 41 40 40 39 39 39 39 39 39 40 40 40 41 40 42 41 40 37 35 35 34 36 35 35 34 33 34
53 52 52 51 49 49 48 48 49 49 49 49 48 48 48 47 46 45 44 44 43 42 42 40 38 39 41 40 40 40 40 40 41 43 41 40 41 37 36 35 37 37 37 35 34 33 36
52 52 52 51 52 52 52 52 52 51 51 50 51 51 50 49 48 47 46 46 46 46 46 37 42 46 43 43 44 43 42 43 43 43 41 44 41 38 35 37 38 38 38 38 36 36 35
51 51 52 52 52 52 53 53 54 54 54 54 53 52 51 51 50 49 49 49 49 50 50 40 48 47 47 46 48 46 48 45 46 45 44 47 45 41 40 39 40 40 39 38 38 39 35
55 54 54 54 54 54 56 58 58 57 56 55 54 54 53 53 54 54 53 53 53 54 49 45 47 51 50 48 47 47 49 49 49 47 48 49 48 46 44 42 42 44 43 41 39 38 38
59 59 58 58 59 60 61 61 61 59 58 58 57 57 57 58 59 59 58 57 56 59 54 42 51 53 52 49 49 49 49 49 51 50 49 49 48 48 47 43 44 46 46 42 42 38 40
61 61 61 61 62 64 65 64 64 63 64 63 63 64 63 64 64 63 61 61 64 59 51 51 59 56 56 55 53 51 52 52 52 52 51 49 47 48 47 48 46 47 44 49 44 39 39
61 60 60 61 63 64 65 66 66 66 66 66 65 65 66 66 65 64 63 65 64 61 63 62 61 61 59 60 57 55 55 55 55 54 54 53 50 50 50 49 50 48 52 50 45 42 39
57 57 57 58 58 60 61 63 64 65 66 66 66 67 69 70 71 71 71 72 68 69 68 67 67 65 63 65 60 59 61 60 59 57 55 53 54 54 52 49 58 53 51 51 49 45 40
40 42 44 46 49 51 54 56 58 60 61 63 64 65 68 70 72 74 75 73 75 74 73 73 71 70 68 70 66 64 68 64 63 58 59 61 61 56 56 60 56 58 51 51 49 45 44
23 26 28 29 31 33 35 37 38 39 39 40 43 49 54 61 66 71 73 75 77 77 76 75 74 74 73 73 72 71 73 72 67 64 68 67 59 64 60 60 59 58 52 51 50 52 47
18 20 23 26 28 29 30 31 31 30 30 31 29 28 31 39 45 53 59 64 67 70 71 71 72 72 72 73 75 74 75 76 71 69 67 67 63 63 62 60 63 59 55 50 53 52 48
20 22 24 26 27 29 29 29 30 31 31 29 28 27 26 27 30 35 41 46 49 52 55 55 57 59 60 61 63 63 65 67 67 57 56 52 43 44 45 47 52 50 51 47 48 51 53
15 15 15 16 17 18 19 20 21 22 24 25 27 29 29 29 30 32 35 39 42 44 47 49 50 52 52 52 53 51 51 51 44 33 33 32 29 33 36 36 40 42 41 41 43 51 53
2 3 4 6 7 9 11 12 12 13 16 18 20 23 25 27 30 33 35 38 39 41 43 45 45 47 47 47 43 46 45 43 37 29 28 23 29 33 33 37 39 26 32 38 44 50 52
4 4 4 3 4 5 6 7 7 8 10 12 15 17 19 21 24 28 31 33 36 37 39 40 40 40 39 37 38 38 35 34 29 35 31 13 18 29 36 35 26 38 43 42 46 49 55
13 12 11 11 10 10 10 10 11 11 10 9 9 11 13 16 19 22 25 27 29 30 32 34 34 33 33 31 30 31 32 30 35 41 39 42 45 41 38 47 44 43 47 49 51 48 54
10 10 9 10 10 10 10 10 10 11 13 13 13 13 13 13 12 13 17 22 25 26 28 31 32 31 31 32 31 31 33 32 29 42 48 52 54 54 57 59 51 51 50 54 55 53 55
7 7 8 8 10 12 12 13 13 14 15 15 15 15 16 17 18 16 15 14 15 19 22 24 27 29 32 32 33 32 32 27 29 35 41 44 43 40 39 31 32 37 46 48 55 44 55
9 10 10 12 14 15 17 17 19 20 21 22 22 22 23 24 23 23 20 21 20 17 16 18 20 23 25 28 31 33 29 25 29 32 30 27 16 9 24 23 18 18 35 38 40 43 53
14 16 17 18 20 22 23 24 26 24 24 26 27 27 29 29 28 31 30 27 26 25 22 20 20 18 17 25 26 27 22 21 26 34 28 4 15 21 24 11 13 9 8 13 16 10 42
Wind_Direction
213 213 213 214 216 217 219 220 221 223 224 226 226 229 231 232 234 234 234 235 236 237 238 241 244 248 249 251 253 256 259 259 260 259 264 268 269 272 274 276 274 276 280 281 284 289 294
216 215 215 214 216 218 219 220 220 221 221 222 225 226 228 231 233 234 236 239 241 241 243 245 248 251 254 256 257 258 258 258 259 260 263 267 269 271 276 276 277 277 279 281 285 290 295
216 216 216 216 217 218 220 221 222 222 223 224 225 228 229 232 234 236 236 238 240 243 245 246 248 250 251 254 256 257 258 259 258 258 260 263 267 267 273 277 280 279 280 283 284 288 298
217 218 218 218 218 219 220 222 223 225 226 227 229 232 235 237 240 241 242 241 242 242 244 246 247 248 251 253 254 255 256 256 257 258 261 262 261 263 271 277 276 281 282 284 285 287 292
218 219 220 219 220 221 222 224 226 227 228 229 233 236 238 240 241 243 244 246 247 247 248 248 248 248 248 252 254 254 255 255 257 260 260 261 263 268 272 275 278 280 280 280 281 284 290
218 218 219 220 222 223 224 225 227 229 230 232 234 237 240 241 242 242 243 244 246 249 250 250 250 250 250 251 255 258 258 258 260 260 262 263 266 267 270 273 275 277 276 278 279 283 286
219 219 220 221 223 224 226 228 229 231 233 235 236 238 240 242 243 243 244 244 245 247 250 251 252 253 252 252 255 257 258 259 260 261 263 266 266 266 268 269 269 269 272 275 277 277 283
219 220 222 224 225 227 228 230 231 233 234 235 236 237 239 240 242 244 245 246 246 248 248 251 252 251 253 251 253 254 256 257 259 261 264 264 265 266 267 266 267 267 270 273 276 277 277
221 224 226 228 229 231 233 234 235 236 236 237 237 238 240 241 243 244 246 248 249 250 250 251 253 254 254 255 254 254 254 256 257 260 261 263 265 266 266 267 268 270 270 272 273 275 276
224 226 229 232 234 235 236 237 238 239 240 241 241 241 241 242 244 245 247 249 250 251 251 251 253 255 255 256 257 257 257 257 256 257 260 263 262 264 267 269 268 270 272 276 275 274 273
227 229 233 235 237 238 239 240 242 242 242 243 243 244 243 244 244 246 248 250 252 253 254 254 257 255 257 257 259 259 260 256 257 259 261 260 263 263 266 266 269 271 274 274 276 273 274
226 229 232 235 238 240 242 243 244 244 244 245 245 246 247 247 247 248 250 252 253 255 256 256 258 257 259 259 259 260 259 260 259 259 260 261 263 262 262 266 270 273 274 275 275 276 276
227 231 234 237 240 242 244 245 246 247 247 247 247 248 248 249 250 251 252 254 255 256 256 251 256 259 258 259 259 259 260 259 260 260 260 261 262 263 263 263 269 274 275 274 274 275 273
231 234 238 241 243 246 248 249 250 250 250 249 248 249 250 250 251 252 253 255 256 252 251 253 256 256 259 260 261 260 261 260 260 261 261 261 261 263 264 266 268 275 275 276 273 272 268
235 239 243 246 249 252 254 255 256 255 254 253 251 251 252 254 255 254 253 254 252 253 258 256 255 256 260 262 261 261 259 260 261 262 262 262 263 264 266 267 269 271 277 270 270 268 265
240 244 248 251 254 257 258 259 259 259 258 257 255 254 254 254 254 254 253 253 253 254 254 256 259 260 260 261 261 261 261 261 260 262 263 264 264 265 265 268 270 271 269 272 271 266 258
243 247 249 253 255 257 258 260 261 262 261 260 258 255 254 253 253 253 253 253 254 253 254 256 258 260 260 261 260 261 260 261 262 262 264 267 267 265 265 267 272 272 272 270 263 261 254
238 243 246 249 252 256 259 262 264 265 265 264 260 257 253 251 250 250 250 252 251 252 253 254 256 258 258 260 261 260 263 263 263 265 267 264 265 267 268 269 267 270 268 265 262 258 249
229 234 239 246 251 255 258 260 261 262 262 261 259 257 252 248 246 245 246 247 248 250 252 254 255 256 258 260 262 262 263 265 266 265 265 267 268 270 267 267 266 265 261 255 249 244 242
241 245 251 257 262 261 265 265 264 264 265 263 263 263 256 249 245 244 245 246 248 250 252 254 255 257 258 259 260 261 262 264 265 265 267 270 271 270 269 265 263 260 259 253 248 245 238
252 255 259 262 264 266 268 267 267 266 265 264 265 263 260 258 253 248 246 245 247 249 251 253 255 256 257 257 258 258 259 261 265 268 269 269 267 264 262 262 259 256 254 248 246 241 236
258 259 261 263 267 270 271 273 270 266 264 263 261 258 258 257 255 253 251 250 250 251 253 254 255 257 258 258 258 261 264 263 264 262 257 247 250 257 253 251 252 250 252 250 242 240 237
250 256 261 265 274 285 284 278 282 277 272 269 266 263 260 258 257 257 255 255 254 254 255 257 257 258 258 260 263 258 257 259 256 239 235 255 259 257 251 247 245 260 256 247 241 235 233
85 77 68 43 9 348 345 341 334 320 304 291 282 275 270 266 262 260 259 258 258 257 257 257 257 259 260 259 256 256 253 247 226 209 221 236 254 239 262 256 271 259 254 245 239 235 231
80 76 71 67 58 49 39 31 26 23 18 360 332 314 296 282 274 269 267 264 260 258 259 260 259 257 257 254 251 250 245 236 209 209 193 202 211 239 260 274 268 258 258 250 242 234 231
53 48 45 39 27 18 9 2 358 352 348 347 345 341 339 332 314 295 280 274 271 266 260 258 255 254 252 252 251 248 246 240 232 215 218 222 239 257 267 269 266 255 245 244 240 231 228
31 21 10 359 349 338 334 334 331 332 329 323 321 318 319 319 318 317 308 301 287 277 272 269 262 256 252 251 250 248 247 244 241 237 239 240 250 261 251 249 253 269 265 250 240 232 231
336 330 324 323 324 321 319 317 316 314 311 309 307 305 302 302 301 298 298 296 297 293 292 286 278 264 254 251 250 249 246 237 234 242 240 238 236 14 320 245 221 249 264 247 238 233 236
315 312 309 308 307 307 306 306 307 307 306 305 302 299 296 292 290 289 288 285 284 285 284 287 290 283 264 247 245 243 238 227 217 231 235 162 146 146 238 153 133 138 235 259 248 252 278
Height
10879 10885 10890 10894 10899 10904 10909 10914 10918 10923 10928 10933 10937 10941 10944 10948 10952 10956 10960 10963 10967 10970 10974 10977 10981 10984 10986 10987 10988 10990 10993 10995 10996 10997 10999 11000 11000 11004 11005 11007 11008 11008 11009 11007 11005 11002 11003
10873 10878 10884 10889 10894 10898 10903 10908 10913 10917 10922 10927 10931 10935 10938 10942 10946 10950 10953 10956 10960 10963 10967 10971 10974 10976 10978 10980 10983 10984 10986 10988 10990 10991 10992 10993 10994 10996 10998 11000 11003 11003 11002 11001 11001 10999 10998
10866 10872 10877 10883 10888 10893 10898 10902 10907 10912 10916 10921 10925 10929 10932 10936 10939 10943 10946 10950 10953 10957 10960 10964 10967 10970 10971 10973 10976 10976 10978 10980 10982 10984 10986 10987 10989 10991 10991 10993 10996 10996 10995 10996 10995 10995 10997
10860 10866 10872 10877 10882 10887 10892 10897 10901 10906 10910 10915 10918 10921 10925 10929 10933 10936 10939 10942 10946 10950 10953 10956 10959 10962 10964 10963 10967 10968 10970 10972 10974 10977 10979 10981 10985 10987 10987 10987 10989 10988 10987 10989 10989 10989 10992
10854 10860 10865 10870 10875 10881 10886 10891 10895 10900 10904 10908 10911 10915 10918 10922 10926 10929 10932 10935 10938 10941 10945 10948 10952 10955 10958 10955 10960 10961 10964 10966 10967 10970 10972 10975 10978 10981 10982 10983 10982 10982 10982 10983 10983 10983 10984
10847 10853 10859 10864 10869 10874 10879 10884 10888 10893 10897 10901 10905 10909 10912 10915 10919 10922 10925 10929 10932 10935 10938 10941 10944 10947 10950 10950 10952 10955 10958 10959 10960 10962 10964 10968 10971 10973 10975 10976 10975 10976 10974 10978 10977 10975 10978
10841 10847 10853 10857 10862 10868 10873 10877 10882 10887 10891 10895 10898 10902 10905 10908 10912 10915 10918 10922 10925 10928 10930 10935 10937 10941 10940 10944 10945 10948 10951 10953 10954 10953 10957 10960 10962 10966 10968 10969 10967 10968 10966 10970 10971 10971 10970
10834 10840 10846 10851 10857 10862 10866 10871 10875 10879 10883 10887 10891 10894 10898 10901 10904 10908 10911 10914 10918 10920 10924 10927 10929 10933 10933 10937 10939 10941 10943 10945 10947 10947 10949 10952 10953 10958 10960 10961 10959 10960 10960 10961 10963 10964 10966
10827 10833 10839 10845 10850 10855 10859 10864 10867 10871 10876 10880 10883 10887 10890 10893 10897 10900 10903 10905 10909 10912 10916 10920 10922 10924 10926 10929 10931 10933 10935 10938 10939 10941 10941 10944 10946 10950 10952 10952 10953 10952 10953 10954 10956 10958 10957
10820 10826 10831 10837 10842 10847 10852 10856 10859 10863 10867 10871 10875 10878 10882 10885 10888 10891 10894 10897 10900 10904 10907 10912 10915 10916 10917 10920 10922 10925 10927 10930 10931 10931 10934 10937 10937 10942 10943 10945 10944 10945 10946 10949 10950 10951 10950
10813 10819 10824 10830 10834 10839 10843 10847 10851 10855 10859 10862 10866 10869 10873 10876 10880 10883 10885 10888 10892 10894 10896 10908 10906 10904 10909 10911 10913 10915 10919 10919 10922 10924 10927 10924 10930 10933 10936 10935 10936 10937 10939 10942 10942 10944 10945
10805 10811 10816 10821 10826 10830 10834 10838 10841 10845 10849 10852 10856 10859 10863 10866 10870 10873 10875 10879 10882 10884 10885 10898 10893 10896 10897 10901 10901 10906 10907 10911 10912 10915 10918 10917 10920 10925 10926 10928 10927 10928 10930 10932 10934 10936 10941
10797 10803 10808 10813 10817 10821 10824 10827 10830 10834 10838 10842 10846 10849 10852 10856 10859 10862 10865 10868 10872 10872 10879 10885 10885 10883 10886 10889 10892 10895 10896 10899 10901 10904 10906 10908 10911 10913 10917 10919 10919 10919 10921 10924 10927 10930 10932
10789 10794 10799 10804 10807 10810 10813 10816 10820 10824 10827 10831 10834 10838 10841 10844 10846 10850 10853 10856 10859 10856 10863 10877 10872 10871 10874 10878 10881 10884 10886 10888 10889 10892 10895 10898 10901 10902 10906 10912 10911 10911 10911 10916 10916 10921 10923
10781 10786 10790 10794 10797 10799 10801 10804 10808 10811 10815 10818 10821 10824 10827 10830 10832 10836 10840 10843 10838 10847 10858 10861 10854 10859 10862 10866 10870 10872 10875 10877 10878 10880 10884 10887 10891 10893 10897 10899 10903 10901 10905 10900 10906 10912 10914
10773 10777 10781 10783 10785 10787 10789 10791 10794 10796 10799 10802 10805 10808 10811 10814 10817 10821 10825 10823 10828 10835 10837 10840 10843 10846 10849 10850 10856 10859 10862 10863 10866 10870 10872 10875 10881 10883 10885 10889 10890 10893 10888 10892 10898 10901 10903
10763 10767 10770 10772 10774 10775 10776 10777 10779 10781 10782 10784 10788 10791 10793 10796 10799 10803 10806 10808 10816 10817 10821 10824 10827 10832 10835 10833 10842 10844 10845 10849 10852 10858 10862 10865 10866 10870 10872 10880 10872 10879 10882 10882 10885 10890 10895
10753 10756 10759 10760 10761 10762 10763 10763 10764 10764 10764 10765 10768 10769 10772 10776 10780 10784 10788 10794 10796 10799 10803 10808 10811 10815 10820 10818 10827 10832 10828 10835 10839 10847 10847 10847 10848 10856 10859 10857 10863 10860 10869 10870 10875 10880 10884
10746 10748 10750 10752 10752 10753 10752 10752 10752 10751 10751 10750 10750 10750 10752 10755 10760 10765 10769 10774 10777 10783 10787 10792 10796 10799 10803 10806 10810 10814 10814 10816 10825 10831 10827 10829 10841 10836 10842 10843 10845 10844 10850 10853 10858 10860 10871
10742 10743 10744 10745 10744 10744 10744 10743 10743 10743 10742 10742 10741 10741 10741 10741 10744 10749 10753 10756 10762 10766 10771 10775 10779 10783 10786 10789 10791 10797 10799 10799 10807 10809 10813 10814 10818 10820 10822 10824 10822 10829 10834 10839 10843 10852 10861
10736 10737 10737 10737 10737 10737 10736 10735 10734 10734 10734 10734 10734 10735 10735 10735 10737 10739 10742 10745 10748 10752 10756 10761 10764 10766 10769 10773 10775 10779 10780 10782 10784 10799 10798 10797 10798 10797 10801 10805 10807 10815 10818 10825 10833 10843 10844
10731 10731 10731 10731 10730 10729 10729 10728 10727 10726 10726 10726 10726 10727 10728 10729 10730 10731 10733 10736 10739 10742 10744 10747 10750 10753 10755 10758 10761 10767 10768 10767 10774 10783 10779 10780 10782 10782 10786 10788 10793 10799 10809 10816 10824 10828 10838
10729 10729 10729 10728 10727 10726 10724 10723 10722 10721 10720 10720 10720 10720 10720 10722 10722 10723 10725 10726 10728 10731 10732 10736 10739 10740 10743 10746 10753 10750 10753 10756 10761 10766 10768 10766 10766 10769 10776 10774 10780 10801 10803 10804 10808 10814 10827
10729 10729 10728 10727 10726 10725 10723 10722 10721 10719 10717 10717 10716 10715 10715 10715 10715 10716 10716 10717 10718 10720 10722 10724 10727 10730 10733 10736 10737 10738 10741 10743 10749 10753 10756 10754 10751 10754 10765 10769 10783 10787 10784 10791 10794 10801 10811
10730 10729 10729 10728 10727 10726 10724 10723 10721 10719 10717 10716 10714 10713 10711 10710 10710 10709 10709 10709 10710 10711 10713 10714 10718 10720 10722 10724 10727 10728 10729 10734 10742 10741 10742 10742 10735 10745 10754 10763 10770 10778 10775 10778 10780 10788 10797
10732 10731 10730 10730 10728 10727 10725 10723 10722 10720 10718 10716 10714 10712 10710 10708 10707 10706 10704 10703 10703 10703 10705 10707 10709 10711 10712 10714 10718 10720 10720 10726 10735 10740 10738 10737 10737 10742 10747 10749 10752 10753 10753 10759 10764 10770 10781
10733 10732 10731 10730 10728 10726 10725 10723 10720 10719 10717 10714 10712 10711 10708 10706 10704 10703 10701 10700 10698 10698 10699 10699 10699 10701 10702 10705 10707 10710 10713 10719 10723 10726 10730 10737 10742 10741 10738 10737 10741 10739 10739 10747 10749 10776 10770
10733 10731 10729 10728 10726 10724 10722 10720 10718 10715 10713 10711 10709 10707 10705 10702 10701 10698 10698 10695 10695 10694 10694 10692 10691 10692 10693 10694 10695 10697 10703 10709 10710 10713 10716 10723 10730 10728 10733 10735 10736 10735 10732 10737 10749 10753 10762
10730 10728 10727 10724 10722 10719 10717 10714 10712 10710 10707 10705 10702 10700 10698 10695 10694 10690 10690 10689 10689 10689 10689 10688 10686 10686 10686 10684 10684 10688 10696 10701 10706 10707 10710 10712 10715 10720 10734 10731 10728 10729 10729 10734 10747 10766 10746